Wind_Speed
17 18 19 21 19 9 1 2 1 2 4 2 3 1 2 1 1 3 8 6 1 1 1 2 2 5 4 2 5 6 2 1 4 3 3 2 7 15 13 16 26 27 27 25 23 23 22 22 22 20 19 17 18 18 17 16 16 15 15 15 16 15 15 16 16 16 15 16 16 16 15 15 14 13 12 12 11 11 10 10 10 10 10 11 11 12 13 14 15 16 15 15 15 14 13 13 15
19 16 16 19 16 9 3 3 3 3 5 3 3 1 2 3 4 3 7 6 2 4 1 3 3 4 5 5 4 4 3 3 0 1 1 6 12 12 13 21 27 25 27 26 24 23 22 23 22 21 19 18 18 18 18 16 16 15 15 15 15 15 15 15 15 15 15 15 15 15 15 14 13 12 12 11 10 10 10 9 8 9 10 11 11 12 13 14 15 15 15 14 13 13 13 14 14
18 15 15 16 10 5 2 4 4 2 4 2 4 3 1 2 1 2 6 6 5 5 1 3 3 3 4 5 3 2 1 1 1 1 3 9 10 11 19 24 25 24 26 27 25 24 24 24 23 21 19 19 19 19 18 16 16 15 15 15 15 14 15 15 15 15 14 15 14 14 14 13 12 12 11 10 10 9 9 8 7 7 9 9 10 12 13 14 14 14 14 12 12 12 12 12 12
15 13 14 10 5 4 3 4 2 4 2 2 3 5 1 3 4 5 6 5 4 3 2 2 3 2 3 4 1 2 1 1 1 1 4 7 9 16 23 24 24 24 26 26 25 25 25 25 23 21 19 20 19 19 18 17 16 16 15 15 14 14 14 14 14 14 14 14 13 13 13 12 12 11 10 9 9 8 7 6 5 6 7 8 10 12 12 13 13 13 13 12 11 11 10 10 10
11 10 12 7 2 2 3 2 2 3 2 3 1 5 4 4 3 5 7 5 3 2 3 2 1 2 3 3 0 2 0 1 2 3 5 7 13 21 22 23 25 25 25 25 26 26 25 25 23 21 20 20 20 19 18 17 17 16 15 15 14 14 14 14 13 13 13 13 12 12 12 12 11 10 9 8 7 6 6 4 5 6 7 8 10 11 11 12 12 12 12 11 10 10 10 9 8
9 8 11 9 3 0 3 1 1 1 4 5 3 5 5 3 1 4 7 7 4 4 3 3 1 2 3 3 2 2 2 2 4 6 8 12 18 22 22 24 25 24 24 24 25 26 26 25 23 22 21 21 20 19 18 17 16 16 15 15 14 14 14 13 13 12 12 12 11 11 10 10 9 9 8 6 6 5 5 4 5 6 7 8 9 10 11 11 11 11 10 10 9 9 8 7 7
9 5 6 7 2 1 4 1 3 3 3 6 4 5 5 3 4 4 4 6 3 4 2 3 4 6 2 1 2 5 5 2 5 8 13 18 22 22 24 25 25 24 23 24 24 25 26 25 23 22 22 21 20 19 18 18 17 16 15 15 14 13 13 12 12 11 10 10 9 9 8 8 8 7 7 6 5 4 4 4 5 6 7 7 9 10 10 10 10 10 9 9 8 7 7 6 6
7 3 1 3 1 3 4 2 3 3 3 4 5 6 7 6 7 3 2 3 3 3 1 3 4 5 0 1 2 6 8 4 8 13 19 23 24 24 25 25 25 24 22 23 24 24 24 24 23 22 22 21 19 19 18 17 17 16 15 14 13 13 12 11 10 10 8 7 7 7 6 6 6 5 5 5 5 5 5 6 6 6 6 7 8 10 10 10 9 9 8 8 7 6 6 5 5
5 3 0 3 2 2 2 1 3 3 4 6 4 6 7 2 4 3 3 3 3 2 3 2 2 4 2 4 3 3 7 10 15 19 22 24 25 25 25 25 25 24 23 24 24 23 22 23 23 22 22 20 19 19 18 17 16 16 15 13 13 12 11 10 9 8 7 6 6 6 5 5 4 4 4 4 5 6 6 7 7 7 7 7 8 9 9 9 8 8 7 6 6 5 5 4 4
4 3 1 2 3 2 1 2 3 3 5 7 7 8 8 4 3 3 3 2 3 2 0 3 4 4 4 4 2 2 3 14 22 22 21 24 24 25 25 24 23 23 25 25 23 21 21 22 21 22 21 19 19 19 18 17 16 16 15 13 12 12 10 9 8 7 7 7 7 7 6 6 6 5 5 5 6 7 7 7 7 8 8 7 7 8 8 8 8 7 7 5 5 4 3 3 3
2 3 2 3 3 3 3 3 4 4 5 5 7 10 6 2 3 2 1 1 1 1 3 2 4 5 5 4 1 1 7 15 21 23 21 22 23 24 24 22 21 22 24 25 23 21 21 20 19 20 19 19 19 19 18 17 16 16 14 12 12 11 9 8 8 8 8 9 8 8 9 9 9 8 8 7 7 7 8 8 8 8 8 7 7 7 7 7 8 7 6 5 4 3 2 2 2
2 2 4 3 3 4 4 3 4 4 6 5 6 9 2 4 2 3 3 3 1 2 4 3 4 5 5 3 1 5 9 11 18 23 22 21 22 22 23 22 22 22 23 23 23 22 21 20 19 18 18 18 18 18 17 17 16 14 12 11 11 9 8 8 9 10 10 10 10 11 12 12 12 11 10 9 8 8 8 8 9 9 8 7 6 6 6 7 7 7 6 5 4 3 2 1 1
3 2 5 2 3 3 4 3 4 3 4 4 5 7 3 3 1 1 2 1 1 2 5 5 5 5 5 2 3 5 7 11 16 21 21 21 21 21 22 22 23 23 23 23 23 22 21 20 19 18 17 17 18 18 16 16 15 13 12 11 10 9 8 9 10 11 11 11 11 13 14 14 14 13 12 11 10 8 8 8 9 9 8 6 6 5 5 6 6 6 6 5 5 4 3 2 2
3 3 5 3 1 4 4 2 2 2 4 5 5 5 4 2 3 6 5 2 3 3 3 3 7 6 4 3 4 4 7 14 17 19 20 20 21 22 22 23 23 23 24 22 21 21 21 20 19 18 18 17 17 17 15 15 13 13 12 11 10 9 9 9 10 11 11 12 12 13 14 15 15 15 14 13 12 10 8 7 8 8 7 5 5 4 4 5 5 5 5 5 4 4 3 3 3
4 2 4 3 2 2 3 2 3 5 4 5 5 3 4 2 4 5 4 1 3 3 1 4 3 2 4 7 5 6 13 18 18 19 21 20 21 22 22 21 21 23 22 20 20 20 20 20 20 18 18 17 17 16 15 14 13 13 12 11 11 10 9 9 10 11 12 13 13 13 14 14 14 14 14 14 14 12 10 8 6 6 5 4 4 3 3 3 4 4 4 4 4 4 3 4 3
3 3 4 3 3 3 3 3 3 4 4 5 5 3 5 4 3 3 2 2 2 2 3 2 2 1 6 7 7 15 21 21 20 21 21 21 21 20 19 19 19 20 19 19 20 20 20 20 19 18 18 17 17 16 15 13 13 13 12 11 11 10 10 10 11 11 12 13 13 14 14 14 14 14 14 14 14 13 12 10 7 5 4 3 2 2 2 2 2 2 3 3 3 3 4 3 3
3 4 3 2 4 4 4 4 4 4 5 5 6 3 3 6 4 2 1 5 6 3 4 2 3 1 4 7 17 26 25 23 23 22 21 20 19 17 16 16 17 17 17 18 20 20 20 19 19 18 18 17 17 16 15 14 13 12 11 11 10 10 11 12 12 12 12 13 13 14 14 14 13 13 14 13 13 13 12 12 10 8 5 3 2 1 1 1 2 2 3 3 3 3 4 3 2
2 3 3 4 5 5 6 8 7 5 4 5 6 3 5 6 3 1 2 7 6 7 6 4 6 7 10 17 27 28 26 25 24 22 20 18 16 15 13 14 16 17 18 19 20 21 20 20 19 19 19 18 18 16 15 15 14 12 11 10 9 10 13 13 13 12 12 12 12 13 13 13 13 13 13 13 12 11 11 10 10 9 8 6 4 3 3 3 3 3 3 3 3 3 4 3 1
3 4 4 6 6 6 7 9 7 5 5 6 6 2 4 5 1 1 1 2 5 8 5 6 9 10 13 20 25 25 25 23 21 20 20 18 16 13 11 12 15 17 20 22 22 22 22 22 21 21 21 20 18 16 16 16 15 13 11 10 9 11 14 13 12 11 11 10 10 10 10 10 11 10 10 10 9 9 9 9 8 8 7 6 6 5 5 5 5 4 4 4 4 4 4 3 2
3 4 4 6 6 6 6 7 8 8 8 7 7 2 2 5 2 0 3 5 4 7 6 7 9 10 12 14 19 22 21 19 19 19 19 19 17 14 15 16 17 19 21 22 23 23 24 23 22 22 21 20 19 17 16 16 15 14 13 10 9 11 13 12 10 10 9 9 8 8 8 8 9 9 8 7 7 7 7 7 7 7 6 5 4 4 4 4 4 4 4 4 4 4 4 4 3
3 4 5 6 6 7 7 8 9 8 7 6 4 1 3 5 2 2 5 2 1 5 8 10 13 15 14 13 15 19 18 17 18 19 19 20 19 21 24 23 22 21 22 23 23 25 25 24 24 22 21 21 20 18 17 17 16 15 14 12 10 11 12 11 10 8 7 7 6 6 6 7 7 8 8 7 6 6 5 5 5 5 4 4 4 3 3 3 3 4 4 4 4 4 4 4 4
2 4 5 6 7 6 7 8 9 7 4 3 3 3 5 2 2 2 5 3 4 4 8 12 17 18 18 17 16 16 16 15 16 18 20 23 26 28 28 29 27 25 26 26 26 26 26 25 24 22 21 20 20 18 17 17 16 16 15 13 12 12 11 10 8 6 6 5 5 5 5 5 6 7 7 6 6 5 4 3 3 4 3 3 3 2 2 3 3 4 4 5 5 4 4 5 6
3 4 3 5 7 6 5 5 8 7 5 5 4 3 2 3 3 0 4 4 6 4 6 13 16 19 21 20 18 17 15 14 16 20 24 28 33 35 38 40 38 35 33 31 29 28 26 25 23 23 22 20 19 18 16 17 17 16 15 14 14 12 11 9 6 5 4 3 3 3 4 4 5 5 5 5 5 5 5 4 3 3 2 3 3 2 3 4 4 4 5 6 5 5 5 6 7
5 5 3 5 7 7 6 5 7 7 8 7 1 3 4 4 4 1 2 3 4 2 8 14 15 19 21 18 17 16 16 16 18 25 31 35 35 34 35 36 39 40 37 34 31 29 26 24 23 22 21 20 19 17 16 17 17 16 15 15 14 13 10 8 5 4 3 2 2 2 2 3 3 3 3 3 3 4 4 4 2 2 2 2 3 3 3 4 4 5 6 6 6 6 6 7 7
7 6 4 4 5 7 7 5 5 4 5 3 2 4 4 1 1 3 3 4 3 5 10 13 15 17 17 16 16 15 14 16 19 25 32 33 29 25 22 21 26 31 32 32 29 27 25 24 22 21 20 19 19 18 17 18 17 16 15 15 15 13 11 8 6 4 2 2 2 2 1 2 2 2 2 2 1 2 2 2 1 1 2 2 3 3 4 4 5 6 6 6 6 6 6 7 7
7 8 5 3 3 5 6 7 5 2 2 2 2 4 3 3 3 3 1 2 3 8 11 12 15 16 15 15 16 15 15 16 19 26 30 27 21 18 17 14 15 18 22 25 24 24 23 23 22 21 20 19 18 18 17 17 17 16 15 15 14 13 11 8 6 4 3 3 3 2 0 1 2 3 3 2 1 1 1 1 1 2 2 3 3 3 4 4 5 6 6 6 6 6 7 7 7
3 7 6 5 4 3 3 5 6 2 2 5 4 6 4 1 1 1 2 2 4 10 11 12 14 15 15 14 14 14 14 17 24 27 23 19 17 16 14 11 12 15 17 20 21 21 21 22 22 21 20 19 18 17 17 17 15 15 15 14 14 12 10 8 7 5 4 4 4 2 1 1 3 4 4 3 1 2 2 3 3 3 3 2 2 2 3 5 6 6 6 5 5 6 6 6 6
2 6 3 5 6 6 4 4 4 1 3 6 7 7 5 2 0 5 6 5 7 12 12 12 12 12 13 14 13 11 12 18 25 23 16 17 19 16 16 15 16 17 17 19 19 20 21 21 21 21 20 19 18 17 17 16 14 15 14 13 12 10 9 8 7 7 6 6 5 4 2 2 3 4 4 2 1 2 3 4 4 4 3 2 2 2 3 4 5 5 5 4 5 5 5 5 5
1 5 2 3 3 7 10 7 5 4 3 5 8 3 6 1 3 6 9 9 8 11 13 11 10 9 10 11 11 9 11 15 20 19 17 18 16 13 16 19 21 19 17 18 18 20 21 21 21 21 20 18 18 17 17 16 14 14 12 12 10 8 9 9 8 8 7 7 6 4 3 3 3 3 3 2 2 4 4 4 4 3 2 2 2 2 3 3 4 4 3 4 4 4 4 5 6
1 3 3 1 1 6 10 8 7 7 5 7 8 3 6 5 4 5 10 11 11 11 11 11 9 7 8 9 9 9 10 12 17 19 17 13 11 12 15 17 21 21 19 18 18 20 21 22 22 21 20 18 17 17 16 15 13 12 11 10 8 8 9 9 9 8 8 7 5 3 2 2 2 2 2 2 3 4 4 4 3 3 2 1 1 2 2 3 3 3 3 3 3 4 5 7 8
2 2 2 3 3 5 5 7 9 8 4 9 8 5 6 4 3 8 10 11 14 13 12 12 9 8 8 8 9 9 9 11 14 16 12 10 11 12 13 15 19 21 21 21 20 21 21 22 21 20 20 17 15 15 15 14 12 12 10 8 7 8 9 9 9 9 8 6 3 2 2 2 1 1 3 3 4 5 4 4 3 2 2 1 2 3 3 4 3 3 3 3 3 4 6 8 10
3 4 3 5 6 3 2 5 11 11 3 8 10 4 5 4 5 10 8 10 13 12 12 12 10 10 9 8 8 9 9 10 11 12 11 11 12 11 13 15 17 20 21 23 23 22 22 22 21 20 20 17 15 14 13 13 12 11 10 8 9 10 11 10 10 8 7 5 3 3 2 3 2 2 4 5 5 5 4 4 3 2 1 1 2 3 4 4 4 4 4 4 4 5 6 8 10
1 6 6 6 8 4 2 3 8 11 4 5 9 4 2 4 7 10 9 11 11 9 10 12 11 10 10 8 8 7 7 7 8 11 12 12 12 11 13 14 17 19 20 23 25 24 23 22 21 19 19 17 14 13 13 13 12 11 11 11 12 12 11 10 9 8 6 5 4 3 3 4 4 4 5 5 5 5 4 3 2 2 0 1 2 3 3 3 3 4 4 4 5 6 7 9 11
4 6 6 4 6 7 4 3 4 9 7 5 7 5 3 3 8 11 10 12 12 9 9 10 9 9 9 8 7 7 7 7 8 10 12 12 12 11 12 14 16 17 19 22 25 25 23 21 20 18 17 17 15 13 13 13 13 12 13 14 13 12 11 10 9 8 7 6 5 4 4 5 5 5 5 5 4 3 3 2 2 1 1 1 2 2 2 2 3 3 3 4 5 7 9 10 11
8 8 6 2 3 6 7 3 3 8 9 7 7 6 5 3 8 10 9 10 11 10 9 7 8 8 8 7 7 7 7 8 8 9 11 12 12 11 12 13 15 17 18 19 22 23 21 19 18 17 17 17 16 15 15 14 14 14 14 14 13 12 12 11 10 9 7 5 4 5 4 5 6 6 5 4 2 1 1 1 1 1 0 1 1 1 2 2 2 3 3 4 6 8 10 10 10
10 6 4 5 4 4 6 5 5 8 8 7 9 8 6 6 9 9 8 8 8 8 7 6 7 7 7 7 7 7 8 8 6 8 11 11 12 12 12 13 14 16 17 18 19 20 19 18 18 17 17 17 17 17 17 17 17 16 15 15 15 14 14 12 11 9 7 5 5 6 6 6 6 5 4 2 2 2 2 2 2 3 2 1 1 1 1 1 1 2 2 4 6 7 9 9 9
8 7 5 5 5 3 5 5 5 7 7 5 7 8 7 9 11 10 9 7 7 9 9 8 8 8 8 8 8 8 8 6 5 9 11 12 13 13 13 14 15 16 17 18 19 19 19 19 18 17 17 18 19 20 20 21 20 18 17 16 16 16 14 13 12 10 8 8 8 7 6 6 5 5 4 4 4 4 4 4 4 4 3 2 2 1 0 1 0 1 2 3 6 7 11 12 10
6 7 7 5 5 4 5 5 2 4 5 3 3 7 6 9 11 9 8 9 9 11 12 11 10 9 8 8 10 9 7 4 6 9 12 14 15 15 16 16 18 18 18 20 20 20 20 19 19 19 19 20 21 22 23 22 21 19 17 17 17 17 15 14 14 12 10 10 10 9 8 7 6 5 5 5 4 4 4 4 4 3 3 2 1 1 0 1 1 1 1 3 7 11 15 16 12
5 3 6 5 5 2 3 1 3 1 4 3 3 7 4 6 7 6 6 8 7 8 9 8 9 10 8 9 9 8 7 5 7 9 12 16 17 17 19 18 19 20 20 20 21 21 21 21 21 22 22 24 24 23 23 21 19 18 17 18 18 17 17 16 15 13 11 10 10 9 7 7 6 5 5 4 4 4 4 4 3 3 2 1 1 0 0 1 1 1 1 3 8 14 19 19 17
3 3 4 3 3 3 3 2 3 3 2 4 6 6 3 4 3 2 4 4 2 4 6 5 6 9 9 9 7 7 8 7 9 8 9 15 18 19 20 20 20 21 20 21 22 23 23 23 23 24 23 24 25 24 21 19 18 17 17 18 18 17 18 16 15 13 11 10 10 8 6 5 4 3 3 3 3 3 3 3 3 3 2 1 0 0 0 1 2 3 5 6 8 15 20 21 20
3 4 4 2 2 4 3 2 2 5 4 4 9 5 0 4 5 4 3 3 3 5 7 6 7 7 6 6 6 7 7 7 9 9 6 10 16 19 20 20 20 21 21 21 23 23 23 23 23 23 23 22 22 22 21 19 19 19 20 20 19 18 18 16 15 13 11 9 9 7 5 4 3 2 2 2 2 2 2 2 2 2 2 1 1 1 3 5 7 8 10 10 11 15 19 22 22
4 3 6 6 5 3 3 4 4 5 2 2 6 3 4 4 9 8 4 5 6 6 8 9 8 7 6 7 8 8 7 6 7 7 7 9 14 18 19 19 19 20 20 21 22 22 22 22 22 21 22 22 19 20 21 20 20 21 22 23 21 20 18 15 14 13 11 9 8 7 5 3 2 1 1 1 2 2 2 2 2 2 2 3 4 5 8 10 11 12 12 12 14 14 16 21 22
4 5 8 8 5 1 3 5 3 3 4 3 4 5 4 3 8 10 7 7 8 7 9 10 8 8 8 8 8 8 7 7 7 7 8 10 13 17 18 19 19 19 19 20 20 20 20 20 21 21 22 22 19 19 21 21 21 22 22 22 21 21 19 15 13 13 11 10 8 6 5 3 2 1 1 1 2 2 2 2 3 3 4 6 7 9 12 14 15 16 14 15 16 14 14 19 19
4 6 9 8 6 4 2 5 2 2 4 0 1 3 2 2 6 9 10 9 9 9 9 10 10 10 10 10 9 9 8 8 8 7 8 10 13 16 18 18 19 19 19 19 19 19 20 20 20 20 22 22 21 20 22 22 22 23 22 21 19 19 18 16 15 13 11 10 8 6 4 3 1 1 1 1 2 2 2 3 4 5 7 9 11 13 16 17 18 18 17 17 18 17 17 20 20
5 7 10 8 7 6 3 5 2 1 3 2 4 3 4 4 4 6 10 11 13 13 14 14 14 13 12 12 11 10 9 9 9 7 7 10 14 18 19 18 18 19 19 20 20 19 19 19 20 20 22 24 22 22 24 24 24 24 23 22 20 18 17 17 16 13 12 10 8 6 4 3 2 2 3 3 4 4 4 6 7 8 11 13 14 16 18 18 18 18 18 18 19 20 20 21 23
4 8 8 4 4 4 3 3 2 2 1 5 8 5 4 4 3 7 10 10 12 14 15 15 13 13 13 12 12 11 9 9 9 8 6 9 16 19 18 18 19 20 20 20 20 19 19 19 20 20 22 26 27 25 26 26 25 25 24 23 21 19 18 18 16 14 12 10 8 6 5 4 4 5 6 6 6 7 8 9 11 13 14 15 17 17 17 17 18 18 19 19 20 22 23 23 25
5 7 6 4 3 2 3 2 3 2 3 7 8 8 6 4 3 6 9 10 14 14 12 11 11 13 15 13 12 11 10 8 9 9 6 9 17 20 19 19 20 20 21 21 20 19 20 19 20 19 22 27 29 28 27 26 26 25 24 23 22 21 20 19 17 14 12 9 7 7 6 6 6 7 9 9 9 10 11 13 13 15 16 16 17 17 17 18 19 20 20 21 22 24 25 25 27
7 6 5 5 2 3 4 3 3 3 6 7 7 8 6 4 4 6 9 11 15 14 12 14 16 16 15 13 12 12 11 9 9 10 7 7 14 20 20 20 22 22 21 22 21 20 20 19 19 19 20 25 27 27 26 26 26 25 23 22 22 21 20 19 17 15 12 9 8 8 7 7 8 10 11 11 12 12 13 14 15 15 16 16 17 17 18 19 20 21 22 23 25 26 26 27 28
6 4 7 6 2 1 1 2 1 4 6 5 4 8 4 5 6 8 12 13 14 15 14 15 17 16 14 13 13 11 10 10 10 10 9 6 8 17 21 21 22 23 22 22 22 22 21 20 20 20 22 25 26 26 27 27 26 24 23 22 21 20 19 18 16 14 12 9 9 8 8 9 11 12 13 13 13 13 13 14 15 15 16 17 17 18 19 19 20 22 24 25 27 27 27 28 29
8 5 7 7 5 5 6 5 2 4 4 4 2 6 2 4 4 8 14 16 17 16 13 11 12 13 13 11 11 11 10 11 9 9 11 8 7 15 22 23 22 22 23 23 23 23 22 21 21 22 23 25 26 26 26 26 24 24 23 22 21 20 19 18 16 14 12 10 9 9 9 11 13 14 14 14 14 14 14 15 15 16 17 18 18 19 20 20 21 24 26 27 28 28 28 29 29
7 3 5 5 5 6 6 4 2 3 2 3 1 3 4 3 4 7 10 10 10 9 6 6 8 9 9 8 10 11 11 10 9 9 11 10 10 14 21 23 23 24 24 24 24 24 23 22 22 24 24 25 25 25 26 25 24 23 22 22 21 20 19 18 15 13 11 10 10 10 11 12 14 15 15 15 15 15 15 16 16 17 18 18 19 19 20 21 23 26 27 28 28 27 27 29 28
5 3 4 4 5 5 2 3 4 3 2 1 1 3 4 4 4 4 4 5 5 7 6 7 9 9 11 10 11 12 11 10 10 10 10 12 14 15 18 21 23 24 25 24 24 24 23 22 22 24 25 25 25 25 25 25 24 23 22 21 21 20 18 17 15 13 12 11 11 12 13 14 15 16 16 16 17 16 16 17 17 18 18 18 19 19 21 23 25 27 28 28 28 27 27 28 27
3 3 6 5 4 7 4 1 0 3 4 2 1 3 4 2 4 5 1 3 5 8 9 9 10 12 13 11 11 11 11 11 10 10 10 11 14 17 18 20 22 23 24 24 25 25 24 23 23 24 25 24 24 24 23 23 23 22 21 21 20 19 17 16 15 15 14 13 13 13 15 16 17 17 17 18 18 18 17 17 18 19 19 19 20 21 23 25 26 27 28 28 27 26 26 26 25
6 6 7 3 4 3 3 2 2 4 3 4 1 3 3 1 2 4 3 4 6 7 9 9 9 11 13 11 11 12 12 11 11 11 11 11 13 18 20 20 21 23 23 24 25 25 24 25 25 26 25 24 23 22 22 21 21 22 21 20 19 18 17 16 16 16 16 16 16 16 17 18 18 18 19 19 20 20 19 18 19 20 19 19 21 23 25 26 26 27 27 27 26 25 26 25 23
5 7 6 4 4 3 1 3 2 2 3 3 3 2 2 3 4 3 3 8 9 9 8 9 10 13 13 11 12 13 12 12 11 11 12 12 13 17 22 23 21 23 24 24 25 25 25 26 26 26 25 24 23 22 22 21 21 22 21 20 20 19 18 18 17 18 17 18 18 18 19 20 20 20 19 20 20 21 20 19 20 20 20 20 21 22 24 24 25 26 27 26 24 23 25 25 23
2 6 6 4 5 5 3 3 3 3 3 2 2 3 3 5 5 6 10 12 12 11 10 11 14 15 13 11 12 13 13 12 12 11 11 13 15 16 22 25 24 24 25 25 25 26 26 26 26 26 24 23 23 23 22 22 22 22 21 21 21 20 20 19 19 19 19 20 20 19 20 22 22 21 20 20 21 21 21 20 20 20 21 20 21 21 21 22 24 24 24 24 23 22 24 24 23
4 7 6 4 2 2 3 2 2 3 3 2 2 2 5 6 5 9 13 12 13 15 14 14 14 13 13 12 13 13 12 12 12 11 10 12 17 19 21 24 25 25 26 26 26 27 27 26 27 26 24 24 24 23 23 23 22 21 21 22 22 21 21 21 21 20 20 21 21 20 21 23 22 21 20 20 21 21 20 20 20 20 20 19 19 20 20 21 22 23 22 21 21 21 23 23 22
6 6 5 5 4 4 4 4 1 2 3 3 4 2 6 7 4 8 11 10 11 15 16 14 12 13 12 11 13 14 13 13 13 12 10 11 16 20 21 23 25 25 26 27 27 29 27 26 27 27 26 26 25 24 23 22 22 22 22 22 23 23 23 22 22 22 22 22 22 21 22 23 22 22 20 20 21 21 20 20 20 20 19 18 18 19 19 20 21 21 20 19 19 21 22 22 21
Wind_Direction
355 355 354 349 346 356 10 77 51 334 71 50 326 64 297 290 108 5 352 332 326 291 253 72 121 128 115 128 168 154 103 175 166 144 206 250 130 153 165 162 156 149 147 146 146 150 152 154 152 150 150 147 144 143 142 138 135 134 132 128 122 120 121 117 116 116 115 115 115 115 115 117 117 116 113 107 103 100 95 86 77 77 76 74 76 81 91 101 103 109 114 114 114 113 112 114 120
356 359 358 351 349 2 337 65 69 337 45 25 296 150 275 329 34 24 337 315 240 275 315 90 91 80 81 96 121 110 36 358 10 171 151 128 135 154 162 160 158 152 147 145 149 153 153 154 151 150 150 148 145 143 141 139 140 138 132 127 124 123 120 115 115 116 115 116 116 118 121 122 122 120 115 110 107 105 97 87 80 81 82 79 81 84 94 106 106 111 115 114 114 114 116 122 125
355 3 5 355 353 25 12 39 71 36 37 338 284 254 269 26 341 260 299 299 241 242 125 81 74 52 41 54 52 56 343 312 49 23 115 140 146 153 159 160 158 152 146 147 153 154 153 154 151 152 153 149 144 143 142 143 143 137 133 128 125 124 121 119 120 121 119 118 118 121 123 124 123 120 118 117 112 105 98 91 83 83 90 92 93 93 100 111 109 112 115 114 114 114 117 124 126
360 10 9 5 7 29 44 36 87 100 57 287 286 273 233 145 234 247 284 293 221 206 83 56 64 30 45 59 12 100 84 267 123 177 144 165 168 155 157 156 153 148 147 152 155 155 155 154 151 153 154 147 143 145 146 146 141 135 134 129 128 127 124 123 123 122 122 121 122 123 122 122 121 119 118 116 111 106 105 100 89 89 94 92 94 100 110 117 114 114 118 119 118 118 122 127 128
8 24 20 37 67 13 77 61 78 102 186 206 233 279 243 182 233 252 277 297 227 179 96 97 91 359 64 78 265 113 144 245 155 180 148 163 165 155 155 153 150 147 151 157 156 156 155 152 152 156 152 145 146 148 148 145 140 137 136 133 132 129 124 122 122 124 125 124 122 123 122 122 121 119 117 117 120 122 124 110 95 94 87 78 83 95 109 118 120 121 125 128 129 130 133 132 128
10 40 37 54 92 72 105 52 343 266 231 178 194 260 238 203 259 258 286 310 262 204 137 110 133 91 67 44 61 60 289 206 132 161 152 151 159 155 153 152 149 150 155 158 157 156 154 153 157 157 149 147 150 150 147 145 142 141 138 135 133 129 126 125 126 126 126 123 123 124 124 125 125 126 125 126 134 142 139 118 109 100 86 80 82 91 104 115 122 127 131 134 137 139 137 132 124
12 29 35 55 58 20 101 174 221 254 235 175 187 235 236 190 187 225 290 318 308 233 190 141 141 103 86 327 88 4 339 189 143 157 159 151 156 155 153 153 150 151 155 157 158 156 155 158 158 154 149 150 152 150 148 146 144 143 140 137 135 134 132 131 129 127 125 126 126 127 127 128 128 129 131 132 138 155 139 113 118 110 93 83 81 90 104 117 125 132 136 138 141 141 136 128 119
22 28 25 84 54 21 98 176 217 228 239 214 201 226 241 186 174 164 174 302 319 254 348 137 144 97 99 352 97 346 13 104 143 151 153 150 154 156 156 156 151 152 157 158 157 156 159 160 155 153 151 152 154 151 150 147 145 143 140 138 138 138 136 133 129 127 128 127 127 128 129 127 129 128 131 137 135 138 124 109 114 115 102 84 78 85 96 110 124 135 139 141 143 139 133 126 114
35 41 153 94 114 49 67 225 257 246 260 275 267 250 262 171 125 99 153 259 279 285 27 132 140 122 166 55 95 327 30 105 131 140 147 150 156 157 159 158 155 155 157 156 154 158 163 159 154 154 153 155 155 151 151 148 147 144 140 142 145 143 140 134 129 129 129 126 125 124 124 120 122 122 128 136 126 123 122 115 115 119 111 89 77 79 84 95 108 125 134 138 137 134 129 122 111
41 25 136 88 125 106 340 264 264 262 259 278 289 275 287 339 75 118 163 235 270 329 53 143 87 120 142 77 87 323 88 126 130 136 147 153 157 159 159 159 158 156 153 152 154 162 163 158 155 155 155 156 155 152 152 149 148 146 145 152 151 144 139 133 129 129 126 124 123 118 112 106 104 106 114 118 115 116 120 121 121 121 112 94 81 76 78 84 93 108 119 126 125 126 125 116 102
50 356 112 101 103 147 214 235 257 260 272 298 300 281 286 1 72 92 54 8 320 111 189 159 93 131 108 81 71 88 134 136 136 142 151 156 159 161 159 157 157 152 151 153 158 163 160 158 157 157 158 158 156 154 153 151 150 149 152 155 148 140 136 131 129 126 125 123 118 110 102 95 92 93 98 100 105 111 115 120 124 125 116 101 89 80 78 80 85 95 103 112 115 114 111 96 76
119 338 74 117 153 184 195 208 250 259 295 319 294 282 349 83 64 5 12 3 4 125 221 211 148 137 94 85 121 130 138 144 146 147 154 158 159 161 158 155 152 151 154 157 159 160 159 160 160 161 162 160 157 155 155 155 153 154 156 151 141 136 133 133 131 127 126 121 114 106 98 92 89 88 90 93 97 103 113 123 128 130 125 111 99 88 82 80 81 85 92 98 102 103 97 74 30
143 147 99 160 189 170 164 179 254 287 306 287 256 276 358 34 53 128 145 267 225 163 250 209 142 97 90 104 123 141 146 156 154 150 155 157 159 158 154 152 151 154 157 157 156 157 159 162 164 164 164 162 159 158 158 157 157 159 154 144 135 132 132 132 131 129 125 118 112 105 98 94 90 87 86 87 90 96 110 125 134 135 129 118 106 96 85 80 79 78 80 81 82 81 77 62 25
150 149 130 182 182 142 158 159 247 248 267 263 254 275 321 345 127 142 151 268 259 201 256 154 128 93 100 128 136 166 161 162 158 152 154 154 157 155 152 152 152 155 154 154 155 158 163 166 167 166 165 163 161 161 162 161 160 158 147 137 132 129 132 134 132 130 124 117 110 104 99 95 90 86 82 81 83 87 99 118 133 137 132 122 109 98 85 77 72 68 68 65 62 57 52 43 27
158 132 104 133 128 153 190 190 187 192 242 262 254 293 322 308 105 118 144 214 277 245 19 88 106 67 156 173 176 178 162 161 157 152 152 150 152 151 150 149 149 152 152 155 159 164 168 170 170 168 168 165 163 166 165 163 160 153 142 136 132 131 136 137 136 129 122 116 109 104 98 93 89 85 81 78 77 77 84 98 120 135 139 128 114 96 81 70 60 55 53 48 48 45 37 29 21
139 100 80 131 174 197 210 194 165 179 240 255 257 335 336 303 57 81 204 154 121 5 39 71 336 29 172 184 154 152 154 156 154 151 148 145 145 143 143 143 147 153 156 162 165 170 173 173 173 171 171 168 169 169 165 163 159 152 143 139 135 136 140 137 134 126 121 115 108 104 97 91 86 82 79 76 74 73 75 81 90 109 133 137 128 100 68 48 33 30 24 21 25 29 28 17 7
89 94 116 175 186 197 190 185 174 185 235 259 276 302 276 290 16 71 336 75 105 64 39 35 342 55 145 138 134 142 149 153 151 147 140 134 132 132 135 141 151 159 165 169 169 175 177 177 176 174 175 174 175 173 168 164 160 155 147 143 139 139 140 135 130 123 120 114 109 106 102 97 90 83 78 73 72 72 73 74 76 79 88 100 103 73 12 356 350 343 345 350 353 8 13 5 1
107 126 173 195 182 191 180 186 188 175 216 237 251 217 209 272 345 158 64 61 93 69 38 44 43 58 94 117 130 139 147 150 147 139 128 121 121 126 136 150 161 168 174 176 177 179 180 180 179 179 180 178 178 176 171 167 163 159 151 147 143 143 140 136 130 123 119 114 111 109 108 105 99 94 86 79 72 69 72 73 74 74 76 79 78 71 56 46 34 20 12 7 12 18 12 9 48
160 138 188 209 184 195 188 186 186 178 205 226 248 194 192 245 265 142 112 120 113 79 56 74 77 81 97 116 129 138 144 145 143 135 127 124 123 127 143 162 173 179 183 183 183 184 184 185 184 183 182 179 179 178 174 171 166 160 156 153 149 148 144 139 132 125 119 113 110 107 106 103 100 99 91 84 76 71 72 72 73 73 74 75 72 68 61 58 56 50 44 40 41 36 23 24 31
184 145 195 223 196 209 211 192 195 207 213 232 251 201 198 235 215 34 137 154 134 120 134 116 114 122 117 126 134 139 142 143 142 137 131 123 122 141 160 175 187 191 191 188 188 189 188 188 188 186 183 180 180 180 177 173 168 163 160 158 156 152 147 143 135 127 121 113 107 100 96 91 88 87 80 78 77 76 75 75 76 73 71 71 69 61 49 45 48 48 45 46 45 37 27 23 12
178 175 195 212 188 205 225 208 212 219 207 224 250 2 286 240 182 134 141 165 218 174 180 156 147 144 137 142 142 144 147 148 146 138 130 126 144 169 173 180 193 196 193 193 194 194 192 192 192 188 185 183 183 183 178 174 170 167 163 161 162 155 149 146 141 133 123 114 106 99 92 84 80 78 72 66 63 60 61 69 73 72 71 77 81 67 48 38 37 39 33 30 31 29 26 19 4
171 217 195 187 171 194 231 214 220 223 185 216 263 292 259 204 95 134 148 210 253 213 191 163 151 150 149 149 148 151 155 155 150 143 142 153 171 180 179 182 191 194 194 197 198 197 196 195 194 189 186 185 186 185 180 174 173 171 166 164 165 160 155 151 147 143 129 119 113 102 90 80 76 73 63 50 39 27 25 35 49 64 71 82 89 74 56 50 42 37 26 22 21 21 18 8 358
200 240 207 195 179 190 228 205 219 222 187 212 228 256 256 56 351 226 140 208 263 277 175 156 151 151 149 149 153 160 166 164 159 158 164 178 185 185 185 184 186 189 192 197 197 198 198 196 195 190 187 186 187 188 181 176 177 175 169 165 166 165 163 161 159 156 147 135 123 106 91 80 70 64 48 32 20 5 360 4 28 54 69 75 71 61 54 50 40 31 22 17 17 15 9 1 353
214 238 231 215 193 198 220 202 216 210 204 225 252 327 319 338 303 11 60 280 294 317 148 145 144 146 147 152 161 168 171 169 171 174 181 191 193 191 191 187 185 185 187 193 195 196 197 195 194 188 186 187 188 189 183 180 181 178 174 168 165 167 169 169 174 176 177 168 144 123 95 76 58 42 22 18 8 353 350 351 11 42 70 67 57 57 50 37 24 17 12 8 8 7 4 359 351
220 220 219 211 197 212 231 230 226 198 216 244 39 301 290 267 197 86 17 325 7 104 130 136 139 145 153 160 167 173 175 174 179 186 196 202 197 196 204 199 192 186 183 189 192 194 195 195 193 187 185 187 189 190 186 186 186 181 177 171 167 170 170 170 181 190 194 186 170 156 86 43 21 345 326 352 355 341 337 334 4 70 91 76 66 52 33 19 9 8 6 5 5 3 1 358 352
220 202 203 196 189 218 232 245 245 203 209 146 106 281 275 157 135 70 325 312 65 114 126 138 145 152 162 167 173 177 179 178 185 197 207 211 204 201 211 213 203 191 185 185 188 192 194 196 195 191 191 192 193 194 192 192 190 185 179 174 171 170 168 170 183 195 202 197 194 193 217 340 337 305 290 302 279 231 250 223 153 133 122 93 70 39 23 17 11 12 10 7 3 358 358 357 352
199 182 205 209 216 241 205 229 246 217 200 172 173 255 256 190 120 105 226 205 129 128 135 149 154 161 167 172 180 182 185 183 191 201 206 212 213 205 204 203 192 188 186 184 187 192 194 196 196 195 198 200 200 199 198 198 193 187 183 178 175 172 171 177 191 206 212 206 213 225 243 303 320 300 287 291 260 193 184 174 153 140 135 114 77 41 30 19 15 16 12 7 359 358 359 352 350
140 157 201 236 241 266 235 229 243 189 229 190 172 233 261 16 184 198 180 169 156 141 147 159 162 168 171 177 183 187 193 191 196 204 204 208 212 202 191 186 181 183 185 185 188 190 193 196 197 199 202 205 205 204 203 203 198 192 189 182 178 178 183 191 200 210 212 212 222 229 250 292 303 295 283 278 227 178 168 164 156 146 141 127 93 57 36 19 13 10 5 2 356 357 357 353 356
160 138 141 262 250 252 239 235 225 181 217 174 142 242 273 242 220 198 161 156 155 147 154 163 167 174 176 182 188 194 199 195 201 212 214 210 211 199 189 186 181 181 184 187 189 190 194 197 200 202 202 206 207 207 206 205 203 196 190 185 183 187 192 200 203 205 210 215 223 229 260 283 288 283 260 233 185 171 165 162 160 151 138 121 90 56 38 21 8 0 354 353 356 352 352 1 8
176 130 145 231 295 257 231 213 214 202 191 149 140 248 263 252 240 170 156 154 149 153 163 166 168 174 182 188 193 203 203 200 209 217 217 212 210 203 196 190 183 181 183 188 191 192 195 197 200 201 201 206 207 208 208 204 200 194 191 191 195 197 195 197 195 197 208 213 219 231 261 265 270 264 210 179 170 174 173 168 161 144 124 103 61 32 19 12 359 352 355 352 356 358 2 10 15
143 146 163 176 217 259 218 183 189 206 197 143 154 242 253 265 224 165 163 162 156 161 171 169 170 175 185 194 198 207 212 217 222 220 214 207 208 208 202 193 187 185 185 188 192 193 194 197 199 198 199 203 204 206 205 200 196 195 199 203 204 194 185 186 188 194 202 204 208 221 237 228 223 197 181 176 172 176 177 171 161 142 114 45 8 9 4 2 357 357 5 2 0 5 14 20 23
119 173 207 195 214 253 233 191 177 188 205 146 161 224 255 252 202 173 162 168 165 163 171 173 175 180 186 196 201 209 220 232 235 226 216 207 208 211 205 196 190 191 189 188 191 192 193 197 198 197 198 200 200 203 203 200 199 202 204 199 193 186 180 182 184 186 187 183 189 202 210 199 181 175 182 184 180 178 176 172 160 146 110 1 2 13 9 3 2 5 8 7 8 11 17 25 31
230 201 206 201 207 207 249 261 192 177 147 166 182 180 241 246 193 173 158 170 175 166 173 177 178 185 190 197 202 208 219 232 235 227 220 212 211 212 204 197 194 194 192 189 189 190 192 196 198 198 199 200 200 200 199 198 201 204 197 186 184 182 178 174 169 166 161 156 161 169 173 169 166 166 167 171 176 175 169 164 149 135 6 351 6 14 19 18 14 7 5 10 11 9 14 26 36
234 207 212 219 197 183 197 272 216 173 154 190 200 175 211 242 180 171 167 173 176 176 180 180 180 187 195 198 204 209 211 218 221 219 217 215 215 211 201 196 195 193 192 192 190 190 191 193 196 196 197 200 199 196 192 193 198 196 187 181 178 173 166 159 156 154 146 142 143 150 155 151 150 147 144 152 162 164 152 142 137 128 344 341 3 24 45 44 20 358 359 10 9 9 13 20 29
199 194 205 210 161 177 187 210 198 172 173 184 177 187 227 224 172 168 172 174 177 184 179 179 185 190 198 200 209 211 210 219 215 205 209 210 210 208 199 193 192 190 190 191 190 189 187 187 190 191 193 194 191 189 187 188 192 187 177 169 163 157 151 148 149 145 139 140 140 137 136 129 131 133 134 144 150 160 158 151 158 151 176 305 357 47 59 33 4 351 359 12 12 16 17 17 25
180 172 162 136 136 195 197 208 206 164 166 186 175 184 197 181 173 167 170 175 178 180 168 180 193 193 200 202 211 211 213 224 205 188 197 200 202 202 196 191 188 188 188 186 185 184 182 181 182 183 188 191 184 179 182 186 182 171 161 152 146 143 142 141 139 136 134 137 132 122 119 117 126 131 131 153 196 225 224 202 185 177 190 226 267 276 3 346 335 346 359 14 11 16 25 27 35
142 129 137 159 155 207 214 212 221 157 153 209 182 167 174 175 177 174 168 165 174 178 178 192 198 197 202 201 206 209 215 216 172 173 182 185 192 193 189 186 182 181 181 180 177 177 179 179 178 177 181 187 182 178 184 186 174 160 152 149 143 138 140 140 134 134 134 134 134 132 131 130 137 142 152 181 199 212 210 199 195 191 206 228 244 245 6 345 19 8 351 19 20 29 42 41 47
97 133 154 180 173 201 222 203 236 172 171 252 161 139 171 184 180 177 163 165 185 189 188 196 198 200 204 202 204 205 207 184 156 168 174 176 180 179 179 176 175 172 168 172 173 173 176 176 175 173 174 179 181 184 187 181 171 168 164 156 147 139 139 141 137 136 137 137 138 138 140 142 149 159 168 177 185 198 199 197 199 199 208 217 219 198 74 339 17 358 323 51 57 58 57 51 52
68 99 132 169 203 220 246 231 15 59 187 236 157 131 163 181 173 181 179 183 192 190 193 198 197 204 210 206 204 201 197 178 171 173 172 173 167 165 168 166 169 168 164 169 172 173 173 171 171 169 168 170 173 182 185 176 170 174 169 158 152 144 141 142 140 139 140 139 135 133 136 142 152 161 161 169 184 194 202 206 204 205 206 207 235 266 271 300 324 342 141 110 86 75 67 58 55
93 80 119 179 220 175 211 240 28 40 127 155 132 115 138 142 133 207 209 203 170 170 196 206 207 214 217 214 209 204 201 187 181 177 167 166 159 159 162 161 164 165 165 169 172 174 172 170 170 165 163 165 169 180 185 177 171 169 162 158 155 148 144 145 141 138 140 138 131 130 134 136 144 158 162 179 201 207 217 218 213 210 206 202 288 295 78 75 91 104 115 118 99 84 77 67 60
167 126 156 197 193 174 179 163 87 44 40 109 111 88 217 164 178 214 202 197 187 175 193 212 219 220 222 222 220 210 204 194 189 181 162 158 158 159 159 158 162 165 169 173 175 176 172 171 170 164 165 166 170 182 188 182 173 164 157 152 149 144 142 144 143 139 139 138 133 133 133 129 134 152 168 183 208 219 218 212 209 200 172 121 92 97 102 102 99 99 106 109 97 90 87 78 69
220 197 202 202 186 178 107 114 99 64 359 254 120 117 275 198 195 209 183 195 212 192 198 214 215 211 213 217 217 212 199 190 191 181 168 160 156 157 156 157 163 169 177 179 179 178 175 174 169 165 165 164 170 185 190 189 181 170 163 157 152 147 141 141 146 145 147 147 141 137 132 126 127 133 143 159 184 197 194 184 172 156 130 110 106 107 106 102 99 100 105 104 95 92 91 85 78
228 221 201 205 201 194 107 127 117 122 202 243 132 161 247 233 208 206 181 193 214 204 208 218 212 206 211 215 215 209 197 186 185 181 174 164 157 155 155 159 168 176 181 181 180 180 178 176 171 169 166 166 180 189 186 189 185 177 175 169 163 158 150 145 149 152 152 149 142 136 131 120 105 80 96 129 148 159 162 152 143 134 115 109 111 109 105 101 101 103 102 98 94 89 85 86 86
224 210 178 190 203 215 154 116 113 182 178 210 85 147 162 249 225 195 175 190 212 216 220 220 214 210 210 214 214 205 199 191 186 186 174 165 163 158 156 163 175 180 180 180 180 181 181 178 175 172 167 171 186 189 184 188 186 179 177 171 165 165 160 152 152 154 151 148 143 135 126 112 85 45 80 123 134 134 137 134 131 125 117 114 114 109 105 104 103 101 96 92 89 84 81 85 87
222 192 170 182 189 195 159 108 108 158 118 193 251 178 151 256 258 173 173 194 211 217 221 219 214 210 207 210 211 205 200 195 191 191 176 169 167 160 160 169 178 180 177 177 180 182 181 179 176 172 167 169 177 182 183 184 184 180 177 172 165 163 161 155 154 153 150 149 143 132 123 120 113 110 125 134 138 135 132 133 130 124 119 117 115 111 108 105 99 94 91 88 87 85 83 84 84
201 160 150 158 170 169 139 129 139 94 131 221 222 189 179 265 267 169 177 198 212 218 222 221 213 207 207 207 205 200 196 192 192 191 180 175 168 160 164 172 175 175 175 177 180 181 180 180 180 175 170 168 169 176 180 179 180 180 177 174 169 163 160 157 154 150 147 146 139 132 131 130 126 127 135 137 139 136 134 134 128 121 119 118 115 112 107 100 94 91 89 88 89 88 87 86 84
133 124 114 84 73 64 59 62 99 111 259 237 203 182 189 252 256 188 183 194 205 212 219 215 205 204 206 203 199 195 192 188 188 187 177 173 168 161 165 170 168 169 174 177 179 179 179 182 184 179 172 169 168 173 178 178 179 181 179 179 176 169 165 162 158 151 147 146 142 141 141 136 132 136 140 140 139 137 136 131 124 119 118 117 113 106 101 97 95 95 93 92 91 90 90 88 85
129 124 126 105 53 24 33 7 47 160 241 249 196 165 169 227 249 211 205 207 206 208 210 204 200 202 201 197 193 190 189 185 182 184 178 171 165 160 163 167 163 164 171 175 177 178 178 182 185 181 173 169 170 174 177 178 179 182 182 181 179 174 171 169 164 158 154 156 155 151 147 140 139 142 142 140 138 138 135 127 122 120 117 112 108 102 101 100 99 98 96 95 93 92 91 87 83
158 134 134 142 156 107 181 242 226 203 244 271 184 146 154 235 237 208 209 218 217 213 213 204 198 199 196 191 188 184 185 184 179 181 182 181 169 160 161 161 159 164 170 174 176 176 176 183 187 182 174 171 173 175 177 178 180 183 183 181 178 175 173 172 168 162 160 162 160 155 151 148 147 146 144 141 138 137 133 127 123 120 114 110 107 105 104 104 103 101 99 97 95 92 89 85 83
185 167 154 164 161 166 199 211 229 233 254 305 181 156 181 264 255 210 203 215 221 219 219 204 195 196 189 182 180 178 182 183 179 181 182 185 178 165 164 163 160 164 171 173 174 175 177 184 186 180 175 174 175 175 177 179 180 182 182 180 179 177 174 171 166 161 158 157 156 153 154 155 152 149 147 143 140 139 135 130 126 120 115 113 110 108 108 107 105 103 100 98 95 92 89 85 83
188 160 132 159 163 172 196 196 200 226 239 339 334 189 186 196 236 216 206 227 234 224 217 183 176 181 167 161 173 179 182 181 175 179 183 185 181 168 164 165 164 165 170 172 173 174 179 184 184 177 173 173 175 175 176 178 178 179 180 180 179 177 171 165 161 157 153 151 151 152 155 158 156 152 149 146 144 144 138 132 129 123 119 116 112 110 110 109 108 104 101 99 95 93 90 86 84
196 116 119 188 186 149 137 184 186 168 140 64 238 220 211 204 252 262 229 250 231 195 179 159 162 163 156 165 179 181 181 177 174 176 179 182 181 170 159 160 163 164 168 172 172 173 179 182 180 175 172 173 175 175 175 176 177 177 179 180 178 173 168 163 157 153 150 149 151 155 158 160 158 153 150 149 149 147 141 135 131 126 122 117 112 110 111 111 109 105 102 99 95 93 89 86 84
169 159 176 196 150 116 106 214 227 98 152 221 229 245 295 296 281 319 11 189 187 177 174 171 168 162 164 175 179 179 179 174 175 176 174 175 178 174 162 156 160 163 168 172 173 175 180 181 176 170 169 170 173 175 175 175 176 176 178 178 175 171 169 166 160 154 151 152 155 159 161 159 158 154 152 152 152 148 143 137 132 128 124 118 113 112 113 112 109 104 101 98 95 92 88 85 83
149 191 190 130 90 97 104 181 357 65 172 257 266 215 266 214 238 327 36 150 177 184 180 174 166 165 174 181 175 174 173 169 171 173 175 173 173 175 168 160 164 169 172 173 173 176 180 181 177 171 168 170 172 174 174 175 177 176 175 175 174 173 172 168 163 157 154 156 159 161 161 159 156 155 154 153 152 150 144 139 134 130 127 120 115 115 115 112 108 103 99 96 95 93 89 85 82
166 178 170 128 166 214 128 154 190 116 168 278 309 261 245 195 212 271 215 189 190 189 178 170 174 180 183 178 172 169 165 167 171 171 175 175 170 170 164 162 167 171 171 170 170 173 176 177 176 173 170 170 171 173 173 175 177 176 174 174 174 173 172 169 163 159 158 160 161 162 162 159 157 156 155 154 154 151 146 141 137 133 130 123 118 118 117 112 107 102 99 96 94 92 89 86 82
105 146 159 158 180 200 191 164 170 159 165 232 287 307 271 227 217 210 211 206 187 177 180 187 191 189 184 175 171 169 167 170 173 172 175 172 167 165 161 162 167 168 167 167 167 168 171 172 171 170 169 168 169 171 172 172 174 175 173 172 173 173 172 169 165 162 162 163 163 164 162 160 158 158 156 155 155 153 150 145 140 137 133 127 121 119 118 113 107 102 98 96 94 91 89 87 84
136 155 173 181 154 149 191 189 128 142 154 171 194 270 262 244 213 199 213 212 188 178 186 196 196 187 181 175 168 168 170 171 171 169 168 165 162 161 161 163 165 164 163 165 165 164 166 167 167 168 170 168 167 168 170 171 172 173 173 172 173 173 171 169 166 165 166 165 165 165 163 161 159 159 158 157 156 154 152 148 143 140 135 129 125 122 120 115 109 103 99 95 95 92 89 88 85
149 165 177 177 143 108 169 214 222 125 147 163 160 224 266 258 215 208 217 206 192 193 193 195 192 181 176 170 165 167 170 170 171 165 160 158 155 154 157 159 158 159 160 163 164 162 164 165 164 166 170 169 168 168 170 171 170 171 173 173 173 172 171 170 167 168 168 167 167 166 164 162 160 160 161 160 158 156 154 150 146 142 137 132 127 124 123 119 111 105 101 97 96 95 92 88 83
Height
766 765 763 762 760 759 763 765 782 792 793 809 810 808 803 795 795 794 794 791 790 786 781 783 782 782 788 793 795 796 799 801 802 809 806 795 794 795 795 795 796 797 800 802 805 806 806 807 809 810 812 813 814 815 817 818 819 819 820 820 821 821 822 822 822 823 823 823 823 824 825 825 826 826 827 828 829 829 830 830 831 831 831 831 831 831 831 831 831 832 832 833 833 833 834 834 835
766 765 763 763 761 763 770 771 793 805 802 814 812 808 803 794 796 798 797 793 791 786 781 781 782 783 784 788 791 794 799 800 798 798 797 795 796 795 796 796 797 798 800 803 805 806 807 808 809 811 812 814 815 816 817 818 819 820 821 821 822 822 822 823 823 824 824 824 824 825 825 826 826 827 828 828 829 830 830 831 831 831 832 832 832 832 832 832 832 833 834 834 834 835 835 835 836
767 765 764 765 764 767 775 778 799 813 813 820 812 805 802 799 799 797 793 789 788 784 782 781 782 784 785 790 793 797 800 800 798 797 797 796 796 796 797 797 798 799 801 803 805 806 807 808 809 811 812 814 815 816 817 819 819 820 821 822 822 823 823 823 824 824 825 825 825 825 826 826 827 827 828 829 830 830 831 831 832 832 832 832 833 833 833 834 834 834 835 835 836 836 836 836 837
769 766 765 767 772 776 784 793 806 814 819 823 815 802 799 801 798 794 789 784 785 783 782 783 786 785 787 794 795 798 801 799 797 797 798 797 796 796 797 798 799 800 802 803 805 806 807 808 809 811 813 814 815 816 817 818 820 820 821 822 823 823 824 824 825 825 825 826 826 826 826 827 827 828 829 829 830 831 831 832 832 832 833 833 833 834 834 834 835 835 836 836 837 837 837 837 838
769 768 768 768 781 788 794 805 810 814 817 816 813 801 796 798 795 793 787 783 784 784 783 784 789 786 787 794 794 798 801 799 797 796 797 797 797 798 798 799 800 801 803 804 805 806 807 808 810 811 813 814 815 816 817 818 819 820 821 822 823 824 824 825 825 826 826 826 827 827 827 828 828 828 829 830 831 831 831 832 832 833 833 834 834 834 835 835 836 836 837 837 837 838 838 838 838
769 770 770 771 784 790 798 811 811 812 807 804 808 799 794 793 792 791 787 783 782 782 782 784 788 789 793 795 794 798 799 797 796 796 797 797 798 799 800 799 800 802 803 805 806 806 807 809 810 811 813 814 815 816 817 818 819 820 822 823 823 824 825 825 826 826 827 827 827 828 828 828 828 829 830 830 831 831 832 832 833 833 834 834 834 835 835 836 836 837 837 838 838 838 839 839 839
771 773 776 781 789 793 804 813 811 810 801 798 801 795 793 793 793 792 790 787 784 782 782 785 785 790 800 798 796 798 795 795 794 796 797 797 798 799 800 800 801 802 804 805 807 808 808 809 810 812 813 814 815 816 817 818 820 821 822 823 824 825 825 825 826 826 827 827 827 828 828 828 829 829 830 830 831 831 832 832 833 834 834 834 835 835 835 836 837 838 838 839 839 839 840 840 840
772 778 785 791 800 804 811 814 810 809 801 794 794 791 790 792 792 791 792 790 787 785 783 786 784 792 802 798 801 800 795 795 794 796 797 797 799 799 800 800 801 802 805 806 808 810 810 810 811 813 814 814 815 816 818 819 820 821 822 823 824 825 825 825 826 826 826 827 827 828 828 828 828 829 830 830 831 831 832 833 833 834 834 835 835 836 836 837 837 838 839 839 840 840 840 841 841
774 780 788 795 806 812 814 815 811 808 801 791 789 785 783 785 786 787 791 791 787 785 787 787 784 793 802 800 804 801 797 798 795 797 798 798 799 800 801 800 801 802 805 808 810 812 812 813 813 814 815 815 816 817 818 819 820 821 822 823 824 824 825 825 825 826 826 827 827 827 827 828 828 828 829 830 831 831 832 833 833 834 835 836 836 837 837 838 838 839 840 840 841 841 841 841 841
778 783 791 799 807 816 819 817 811 805 799 791 787 781 779 781 782 786 789 790 788 786 788 786 785 793 799 804 806 802 801 800 796 798 799 799 800 801 801 802 802 803 806 809 811 813 814 815 815 815 816 816 817 818 819 819 820 821 822 823 824 824 825 825 826 826 826 827 827 827 828 828 828 829 829 830 831 831 832 833 834 835 835 836 837 837 838 838 839 839 840 841 841 842 842 842 842
785 788 791 802 811 818 819 814 809 803 797 792 787 778 776 779 781 785 786 787 788 787 787 785 788 794 799 805 807 803 802 801 798 798 799 801 801 802 802 803 805 806 808 810 812 814 816 817 817 817 817 817 818 818 819 820 820 821 823 823 824 825 825 826 826 826 827 827 827 828 828 828 828 829 830 830 831 832 832 833 834 835 836 837 837 838 838 839 840 840 841 841 842 842 842 842 842
789 794 793 805 811 812 813 811 807 802 798 795 788 776 774 778 781 785 785 787 787 788 786 784 786 789 800 807 806 804 802 802 800 798 800 801 802 803 803 803 805 808 810 811 812 814 817 818 818 818 818 818 818 819 819 820 821 822 823 824 825 825 826 826 827 827 827 828 828 828 828 828 829 829 830 831 831 832 833 834 834 835 836 837 837 838 839 839 840 840 841 842 842 842 843 843 842
788 795 796 805 809 807 811 812 806 804 801 795 787 776 773 778 783 784 786 787 786 790 785 780 782 785 801 807 804 804 803 803 801 800 801 802 803 803 804 804 806 809 811 813 814 815 817 818 819 819 819 819 819 820 820 821 821 822 823 824 825 826 827 827 828 828 828 828 828 829 829 829 830 830 831 831 832 832 833 834 835 836 837 837 838 839 839 840 840 841 841 842 842 843 843 843 843
784 791 793 803 811 807 807 810 807 807 802 791 783 776 773 778 782 782 784 787 787 787 781 777 779 786 801 807 806 805 802 803 802 802 802 802 803 803 804 805 807 810 812 814 815 817 818 819 819 819 819 820 820 821 821 822 822 823 823 824 825 826 827 828 828 829 829 829 829 829 829 830 830 831 832 832 833 833 834 835 836 837 837 838 839 839 840 840 841 841 842 842 842 843 843 843 843
782 788 791 800 811 808 805 806 804 805 800 788 781 776 776 776 777 781 782 785 786 782 779 779 780 787 797 801 803 801 800 802 802 802 801 802 803 804 807 808 811 813 814 815 816 818 818 819 820 820 820 820 821 822 822 823 824 824 824 824 825 826 827 828 829 830 830 830 830 830 830 831 832 832 833 833 834 834 835 836 837 838 838 839 840 840 841 841 841 842 842 842 843 843 843 843 843
781 786 794 800 807 809 806 803 802 805 798 786 779 776 779 777 774 781 779 779 785 782 782 785 783 786 790 791 793 794 798 801 800 801 801 803 805 807 810 812 815 816 816 816 817 818 819 820 820 821 821 821 822 822 823 824 824 825 825 825 825 826 827 828 829 830 831 831 831 831 831 831 832 833 834 835 835 835 836 836 837 838 839 840 840 841 841 841 842 842 842 842 842 843 843 843 842
780 786 796 802 806 807 803 801 801 800 792 784 779 778 782 781 777 780 777 777 785 787 787 788 785 784 786 787 788 792 797 798 799 800 802 805 808 812 814 816 817 817 817 817 817 818 818 820 820 821 821 821 822 822 823 824 825 825 826 826 826 826 827 829 830 831 832 832 832 831 831 832 833 834 835 836 836 836 837 837 838 839 840 840 841 841 842 842 842 842 842 843 842 842 842 842 842
782 790 797 801 804 800 794 793 791 789 787 783 779 778 782 783 781 779 780 785 788 790 791 789 787 786 786 788 789 793 795 797 799 801 805 809 812 814 816 817 817 817 817 816 816 816 817 818 819 820 820 821 822 822 823 824 825 826 827 828 828 828 828 829 830 831 832 832 832 832 832 832 833 834 835 836 837 837 837 838 838 839 840 841 841 842 842 842 842 842 842 842 842 842 842 842 842
782 790 795 795 794 789 783 783 783 784 783 780 778 778 781 782 781 779 784 791 790 793 797 794 794 793 792 792 793 794 796 799 801 802 805 807 811 814 816 817 817 816 815 815 815 815 815 816 817 818 819 820 821 822 823 823 824 825 827 829 829 829 829 830 831 832 833 833 833 833 833 833 833 834 835 836 837 838 838 838 839 840 840 841 842 842 842 842 842 842 842 842 842 842 842 842 842
781 786 791 789 785 782 779 779 779 778 777 777 778 779 781 780 779 778 783 791 790 794 797 796 799 798 797 795 794 796 798 799 800 801 803 806 810 811 812 814 815 814 814 814 814 813 814 815 815 816 817 819 820 821 822 823 824 825 826 828 830 830 831 831 832 833 833 834 834 834 834 834 834 835 836 837 838 838 839 839 839 840 840 841 842 842 843 843 843 842 842 842 842 842 842 842 842
780 781 784 782 781 780 777 776 775 774 775 776 777 780 781 777 776 778 782 788 790 791 789 789 794 796 796 796 795 796 797 798 799 801 803 805 805 804 803 807 811 812 813 814 813 812 813 814 814 815 817 818 820 821 821 823 824 824 826 828 830 831 832 833 833 834 834 834 835 835 835 835 835 836 836 837 839 839 839 840 840 840 841 841 842 842 843 843 843 843 843 842 842 842 842 841 841
779 778 776 775 777 779 774 773 773 772 775 776 778 779 778 775 776 779 780 785 785 784 783 782 785 788 789 791 794 795 795 796 798 800 802 801 797 797 797 799 803 807 809 810 810 811 812 812 813 814 816 818 820 821 822 823 824 825 825 827 829 831 833 833 834 835 835 835 835 836 836 836 836 836 836 838 839 840 840 840 840 840 841 841 842 842 843 843 843 843 843 843 842 842 841 841 841
776 776 774 773 774 775 771 770 771 771 774 776 776 776 775 776 780 781 779 782 781 778 778 779 782 784 785 788 790 792 792 794 796 798 798 794 789 788 786 784 787 794 800 804 806 809 811 812 813 814 816 818 820 821 823 824 825 826 826 827 829 831 833 834 835 835 836 836 836 836 836 836 836 836 836 837 839 840 841 841 841 841 841 842 842 842 842 843 843 843 843 843 842 842 841 841 841
775 776 773 772 773 772 769 768 768 770 773 774 773 774 775 777 780 782 782 783 781 777 777 779 782 784 786 788 789 789 790 791 793 794 792 787 785 785 785 783 782 785 791 797 802 806 809 811 812 814 815 818 820 822 823 824 825 826 827 827 828 830 833 834 835 836 836 836 836 837 837 836 836 836 836 837 838 840 841 842 842 842 842 842 842 842 842 843 843 843 843 843 842 842 841 841 841
774 774 772 771 771 770 767 767 768 770 772 772 774 775 777 778 779 782 785 785 781 778 779 781 783 785 787 788 788 789 789 791 792 793 789 785 787 791 793 793 791 791 792 796 801 806 809 812 813 815 816 818 820 822 824 825 826 827 828 828 829 830 832 834 836 836 837 837 837 837 837 837 837 837 837 837 837 839 841 842 842 843 842 842 842 842 842 843 843 843 843 842 842 842 841 841 840
771 771 770 769 770 769 768 768 768 771 772 772 775 777 777 777 778 784 787 785 781 781 783 785 785 787 788 788 788 788 788 789 791 790 787 787 790 794 795 796 798 799 800 801 804 807 810 813 814 815 817 819 821 823 825 826 827 828 829 829 830 831 832 834 836 837 837 837 837 837 837 837 838 838 837 837 837 838 840 841 842 843 843 843 842 842 843 843 843 842 842 842 842 842 841 841 841
767 768 769 769 769 768 768 769 768 771 772 771 775 777 775 776 780 786 788 784 782 784 786 787 788 788 788 788 788 787 787 787 787 787 787 789 791 793 795 798 800 802 803 804 806 808 810 813 814 816 818 820 822 824 826 827 828 829 830 830 831 832 833 834 835 836 837 838 837 837 837 837 838 838 838 838 838 838 839 841 842 842 843 843 843 842 842 842 842 842 842 842 842 842 842 841 841
765 767 770 770 770 769 768 769 769 770 771 769 773 775 775 778 780 782 784 783 783 785 788 789 790 790 789 789 789 788 787 787 787 787 787 788 788 791 795 798 800 802 803 804 806 808 811 813 815 816 818 820 822 824 826 828 829 830 831 831 832 832 833 834 835 836 837 838 838 837 837 837 838 838 839 839 839 839 840 841 842 842 843 843 843 842 842 842 842 842 842 842 842 842 842 842 842
765 767 772 773 771 771 767 767 768 770 771 768 771 780 780 779 779 779 780 782 783 786 789 791 792 792 792 791 790 789 788 788 788 787 786 787 789 793 796 798 799 800 802 804 806 808 811 813 815 816 818 820 823 825 827 829 830 831 832 832 833 833 833 834 835 836 837 838 838 837 837 837 838 838 839 839 839 839 840 841 842 842 843 843 843 842 842 842 842 842 842 842 842 842 842 842 842
766 768 771 774 777 773 764 764 767 768 770 765 772 787 783 778 781 780 780 780 784 789 789 791 793 794 794 793 791 790 788 788 786 785 787 789 791 794 796 798 798 799 801 804 806 808 811 813 814 816 818 821 823 825 827 829 831 832 832 833 833 834 834 834 835 836 837 838 838 838 838 838 838 838 839 840 840 840 841 841 842 843 843 843 843 843 842 842 842 842 842 843 843 842 842 842 842
768 771 773 775 780 774 760 761 766 768 770 762 772 789 782 779 787 781 779 780 782 787 789 790 793 794 795 794 792 791 789 787 787 787 789 791 792 794 797 798 798 798 800 803 806 808 810 812 814 817 819 821 823 825 827 829 831 832 833 833 834 834 834 834 835 836 837 837 838 838 838 838 838 839 839 840 840 841 841 842 842 843 843 844 843 843 842 842 842 843 843 843 842 843 843 842 841
768 775 778 776 777 772 760 759 762 764 768 764 771 788 783 782 787 780 779 782 782 786 788 789 792 793 794 794 793 791 789 788 789 790 791 792 793 794 797 798 799 799 800 802 805 808 810 812 814 817 819 821 824 826 828 830 831 832 833 833 834 835 835 835 835 836 837 837 837 838 838 839 839 839 840 840 841 842 842 842 842 843 843 843 843 843 843 842 843 843 843 843 842 843 843 842 841
770 772 776 775 776 775 765 760 759 759 765 767 769 781 783 782 783 779 779 782 784 787 788 789 791 792 793 793 793 792 790 790 789 790 791 792 793 795 797 798 799 800 801 803 804 806 809 812 814 817 819 822 824 826 828 830 832 832 832 833 834 835 836 836 836 836 836 837 837 838 839 839 839 840 840 841 842 843 843 843 843 843 843 843 843 843 843 843 843 843 843 843 843 843 842 841 841
773 771 773 773 773 776 771 763 760 758 762 768 770 773 778 782 781 779 780 781 784 787 787 789 790 791 792 792 793 792 792 790 789 789 790 792 793 795 797 798 799 801 802 804 804 806 808 811 814 817 820 822 824 826 828 830 832 832 832 833 833 835 836 836 836 836 836 837 837 838 839 839 840 840 841 842 843 844 844 844 844 844 844 844 843 843 843 843 843 843 843 843 843 842 841 840 840
766 771 773 773 772 773 771 763 759 760 761 766 771 773 778 784 782 780 780 780 783 786 787 789 790 791 792 792 792 791 791 789 787 788 790 791 793 795 796 798 799 800 802 804 805 806 808 811 814 817 819 821 822 825 827 829 831 832 832 833 834 835 836 836 836 836 837 837 838 839 839 840 841 841 842 844 845 845 845 845 844 844 844 844 844 844 844 844 844 844 844 843 842 841 840 840 840
759 767 770 770 771 771 768 759 755 759 763 767 770 771 779 784 781 780 781 781 784 786 788 790 791 791 792 792 791 790 789 787 786 788 790 791 793 794 795 797 798 800 801 803 805 807 809 812 814 817 818 819 821 824 826 829 830 832 833 833 834 835 836 837 837 837 837 838 838 839 840 841 842 842 843 845 846 846 846 846 845 845 845 845 844 844 844 844 844 844 844 843 842 841 841 840 839
756 762 766 765 766 768 764 757 754 755 760 769 769 770 780 782 779 779 780 783 786 786 788 789 789 790 790 790 790 789 788 786 787 788 790 792 793 794 795 796 797 799 801 803 806 808 810 812 814 817 818 820 821 823 825 827 829 831 833 834 834 835 836 836 837 837 838 839 839 840 841 842 843 843 844 845 846 847 847 846 846 846 846 845 845 844 844 844 844 844 844 843 842 841 840 839 837
757 760 764 765 764 763 760 757 756 754 756 769 773 774 784 782 777 779 780 783 785 783 785 786 787 788 788 789 788 787 787 787 787 789 790 791 793 794 795 796 797 799 801 803 806 808 810 812 814 817 819 820 821 823 825 827 829 831 831 833 833 834 836 836 837 838 839 839 840 841 842 843 844 844 845 846 847 847 847 847 847 847 846 846 845 844 844 844 844 844 844 843 842 841 839 838 836
763 763 764 767 765 761 759 757 759 757 756 770 778 779 786 784 779 781 781 782 781 780 782 783 785 787 787 787 786 786 787 787 787 788 789 791 792 794 795 796 798 799 802 804 806 808 810 812 814 817 819 820 822 825 826 827 829 831 831 832 833 834 835 837 837 839 840 840 841 842 843 844 845 846 846 847 847 847 848 848 847 847 847 846 845 844 844 844 844 844 843 842 841 840 838 838 838
767 768 767 768 767 764 762 760 763 764 762 770 779 783 787 784 783 784 782 781 781 781 782 782 783 785 785 784 784 786 786 787 787 787 788 790 791 793 794 796 798 799 801 803 806 807 809 812 814 816 818 820 823 826 827 827 829 830 832 833 834 834 835 837 838 839 841 841 842 843 844 845 846 847 847 847 848 848 848 848 847 847 847 846 845 844 844 844 844 843 842 841 840 839 839 840 840
769 769 768 766 765 762 761 763 765 768 771 771 775 787 792 786 786 786 782 782 782 781 783 783 783 783 783 784 783 784 785 786 787 786 787 789 790 792 793 795 797 799 801 802 805 807 809 811 813 816 818 820 824 826 826 827 828 830 831 833 834 835 836 837 838 839 841 842 843 844 844 846 847 847 848 848 848 848 848 848 848 847 847 846 845 844 844 844 843 842 841 841 840 839 839 841 842
771 768 765 761 761 760 762 766 764 768 778 772 770 784 792 787 786 785 782 783 782 781 782 782 782 782 783 783 783 782 784 785 786 786 788 788 789 791 792 795 796 798 800 802 804 806 808 811 814 817 819 821 825 826 826 827 827 828 829 831 832 834 835 837 838 839 841 842 843 844 845 846 847 848 848 848 848 848 849 849 848 848 847 846 845 845 844 843 842 842 842 841 840 840 839 840 841
774 765 759 759 760 760 763 766 764 770 777 772 768 775 783 788 787 782 781 783 782 781 781 781 781 781 782 782 781 782 783 784 785 786 787 788 789 790 791 794 796 798 800 802 804 806 809 811 814 817 818 821 824 825 826 827 827 827 828 829 831 832 834 836 838 840 841 842 844 845 846 847 848 848 848 848 848 849 849 849 848 847 847 846 846 845 844 844 843 843 843 842 841 841 840 839 841
769 759 755 759 760 761 765 766 767 772 775 775 774 772 776 784 781 775 778 782 783 782 780 779 778 778 779 780 779 780 781 782 784 784 785 787 788 789 791 793 796 798 800 802 804 807 809 811 814 817 818 821 823 824 825 826 826 827 828 829 831 832 834 836 838 840 841 843 844 845 846 847 848 848 848 848 848 849 849 848 848 847 847 847 846 846 846 845 845 844 843 842 842 842 841 840 842
759 753 753 756 758 760 762 766 768 772 776 778 778 775 775 779 777 773 777 782 783 781 777 774 774 774 776 777 777 778 779 780 782 784 784 785 787 788 791 794 796 798 800 802 804 807 809 811 814 816 818 820 821 822 824 826 826 827 828 829 831 833 835 836 838 840 842 843 844 846 847 848 848 848 848 849 849 849 849 849 849 848 848 848 848 848 847 846 845 844 843 843 843 843 843 843 843
751 752 754 755 759 760 761 767 769 772 778 775 772 774 774 777 779 776 776 781 780 774 769 766 768 771 772 773 775 776 778 779 781 783 783 784 786 787 791 794 796 798 800 802 804 807 809 811 813 815 817 819 821 822 824 825 826 827 828 829 830 832 835 836 839 841 842 844 845 847 848 848 848 848 849 849 850 850 850 850 850 850 850 850 850 849 848 846 845 845 845 845 845 844 845 845 845
750 755 757 760 764 763 765 769 769 777 781 769 765 770 770 774 778 774 770 769 765 763 764 764 765 768 768 769 771 773 776 778 779 782 783 784 785 787 791 794 796 798 800 802 804 806 808 810 812 814 816 818 820 823 823 824 825 827 828 829 830 832 834 836 839 841 843 845 846 847 848 848 848 849 849 850 851 851 852 851 851 851 851 851 850 849 847 846 846 846 847 847 847 847 847 848 848
748 751 755 764 770 769 772 774 775 783 779 763 760 767 772 776 773 767 761 752 750 753 755 757 758 761 763 764 767 770 773 775 778 780 782 783 784 786 790 793 795 797 800 802 803 806 808 809 812 814 816 817 819 821 822 823 825 827 828 829 830 832 834 837 839 841 843 845 846 847 847 848 848 849 850 851 852 852 852 852 852 852 852 851 850 849 848 848 848 848 848 849 849 849 850 850 849
748 750 755 768 777 779 782 780 780 782 772 766 769 766 771 773 759 754 757 749 745 743 741 745 749 753 757 760 763 766 770 773 775 778 780 782 782 783 787 791 793 796 799 801 803 805 807 809 811 813 815 816 818 819 821 823 825 826 828 829 831 833 835 837 839 842 844 845 846 846 847 847 848 850 851 851 852 853 853 853 853 853 852 852 851 850 850 850 850 850 850 851 851 852 852 851 851
747 750 754 764 776 784 788 784 782 778 769 772 775 764 767 768 749 741 746 742 737 733 733 738 743 748 753 757 761 764 768 770 773 776 778 780 781 781 785 789 792 795 798 800 802 804 806 809 811 812 814 816 817 819 821 823 825 826 828 830 831 833 835 838 840 842 844 845 845 846 847 848 849 850 851 852 853 854 854 854 854 854 853 853 853 852 852 852 852 852 852 853 853 854 854 853 854
745 745 749 756 763 770 779 780 777 777 773 775 774 765 762 758 742 735 735 734 733 732 734 737 740 746 751 756 761 763 766 769 771 774 776 778 780 781 783 786 790 793 796 799 801 803 805 808 810 811 813 815 816 818 820 822 825 826 828 830 832 834 836 838 840 842 843 845 845 846 847 849 850 851 852 853 854 855 855 855 855 855 855 855 854 854 854 854 854 854 854 855 855 856 856 855 856
748 745 749 754 751 753 766 773 771 769 770 773 773 763 754 745 735 736 737 734 734 733 734 737 740 745 749 754 758 760 763 766 768 772 775 777 779 781 782 784 788 791 795 798 800 802 805 807 809 810 812 814 816 818 820 822 824 826 828 830 832 834 836 838 840 842 843 845 846 847 848 849 850 851 852 854 855 856 856 856 856 856 857 857 857 857 856 856 856 856 856 856 857 858 858 857 858
749 749 748 746 741 742 758 771 775 770 765 769 770 758 751 745 735 735 738 734 734 736 734 737 740 743 747 750 753 757 760 763 766 769 772 775 778 780 782 783 786 790 793 796 799 801 804 806 809 810 812 814 816 818 820 822 824 826 828 830 832 834 836 838 840 842 843 845 846 847 849 850 851 852 853 855 856 857 857 857 857 858 858 858 859 858 858 858 858 857 857 858 858 859 859 859 861
743 748 741 738 742 745 752 762 772 775 768 767 769 758 753 751 741 738 739 736 737 739 735 737 741 743 745 747 750 754 757 761 764 768 771 773 776 778 780 782 786 789 792 795 798 800 803 806 808 809 811 813 816 818 820 822 824 826 828 830 832 834 836 838 840 842 844 845 847 848 849 851 852 853 854 855 857 857 858 859 859 859 860 860 860 860 860 860 859 859 859 859 860 861 860 861 863
731 735 731 737 749 754 756 760 766 773 772 767 767 765 758 750 740 733 733 735 737 738 738 739 741 741 742 744 748 751 755 759 762 765 768 770 773 776 777 781 785 789 792 795 797 799 802 806 807 808 811 813 815 818 820 822 824 826 828 830 832 834 836 839 840 842 844 846 847 848 850 851 852 854 855 856 857 858 859 860 860 861 861 862 862 862 861 861 860 860 860 861 862 862 862 863 864
728 729 730 736 742 746 751 759 759 761 769 768 764 766 759 744 732 721 718 726 731 734 737 736 734 736 737 740 744 748 752 756 759 762 764 766 770 774 776 780 785 788 791 794 796 798 801 805 806 808 811 813 815 817 819 822 824 826 828 830 832 835 837 839 841 843 845 846 848 849 850 851 852 854 855 856 858 859 859 860 861 862 863 863 863 863 862 862 861 861 862 862 863 863 863 864 866
732 733 738 738 738 741 744 754 755 751 759 766 764 763 748 728 721 714 709 719 725 725 727 727 727 731 733 736 740 745 749 753 756 759 762 764 768 772 776 779 784 788 791 793 796 798 801 804 806 807 810 813 815 817 819 821 824 826 828 830 832 835 837 839 841 843 845 846 848 849 850 851 853 854 856 857 858 860 860 861 862 863 863 863 863 863 863 863 863 863 863 864 864 865 865 866 867
729 731 737 737 737 743 749 757 757 748 751 759 761 757 735 713 715 712 706 714 719 717 717 718 723 727 731 735 737 741 746 750 753 757 760 763 766 771 776 779 784 787 790 793 795 797 800 804 805 807 810 813 814 817 819 821 824 826 828 830 832 835 837 839 841 843 845 847 848 849 850 851 853 854 856 857 859 860 861 862 863 863 864 864 864 864 864 864 864 864 865 865 866 866 867 868 869